Regional Weather Roundup
Issued by NWS

Home | Current Version | Previous Version | Graphics & Text | Print | Product List | Glossary On
Versions: 1 2 3 4 5 6 7 8 9 10 11 12 13 14 15 16 17 18 19 20 21 22 23 24 25 26 27 28 29 30 31 32 33 34 35 36 37 38 39 40 41 42 43 44 45 46 47 48 49 50
528
ASUS43 KFSD 170610
RWRSD

WEATHER ROUNDUP FOR SOUTH DAKOTA
NATIONAL WEATHER SERVICE SIOUX FALLS SD
1200 AM CST SUN DEC 17 2017

NOTE: "FAIR" INDICATES FEW OR NO CLOUDS BELOW 12,000 FEET WITH NO
SIGNIFICANT WEATHER AND/OR OBSTRUCTIONS TO VISIBILITY.


SDZ001>005-009-010-012>017-170700-
NORTHWEST AND NORTH CENTRAL SOUTH DAKOTA

CITY           SKY/WX    TMP DP  RH WIND       PRES   REMARKS
BUFFALO          N/A     25  21  85 W6        30.00S WCI  18
FAITH            N/A     29  24  82 NW5       30.07S WCI  24
MOBRIDGE       CLOUDY    28  24  85 CALM      30.06R
$$

SDZ012>016-024>037-041>051-057-063-072>074-170700-
SOUTHWEST AND SOUTH CENTRAL SOUTH DAKOTA

CITY           SKY/WX    TMP DP  RH WIND       PRES   REMARKS
RAPID CTY ARPT CLOUDY    32  23  69 NW10      30.06S WCI  24
PIERRE         CLOUDY    32  31  96 NW5       30.07R WCI  27
CUSTER         FLURRIES  23  18  81 N6        29.97R WCI  16
ELLSWORTH AFB  CLOUDY    32  25  74 W3        30.05
PHILIP         CLOUDY    32  28  85 N10       30.07S WCI  24
PINE RIDGE     CLOUDY    30  25  81 E3        30.04R
SPEARFISH      MOCLDY    28  27  93 CALM      30.05R
WINNER         CLOUDY    34  30  85 NW3       30.07R
$$

SDZ004>011-016>023-039-040-170700-
NORTHEAST SOUTH DAKOTA

CITY           SKY/WX    TMP DP  RH WIND       PRES   REMARKS
ABERDEEN       CLOUDY    27  27 100 CALM      30.08S
WATERTOWN      CLOUDY    27  27 100 CALM      30.05F
BROOKINGS      CLOUDY    29  28  96 NE5       30.05F WCI  24
SISSETON         N/A     26  25  96 S6        30.08S WCI  19
$$

SDZ017-020-022-023-036>040-048>070-170700-
SOUTHEAST SOUTH DAKOTA

CITY           SKY/WX    TMP DP  RH WIND       PRES   REMARKS
SIOUX FALLS    CLOUDY    28  27  96 NE6       30.06R WCI  22
HURON          FOG       28  28 100 CALM      30.08S VSB 1/2
CHAMBERLAIN    PTCLDY    34  33  94 N3        30.06S
MITCHELL       CLOUDY    32  30  92 N5        30.08S WCI  27
YANKTON        CLOUDY    28  25  88 N3        30.08R
$$

ABBREVIATIONS USED IN REMARKS
   TC - TEMPERATURE IN CELSIUS
  WCI - WIND CHILL INDEX
   HX - HEAT INDEX
  VSB - VISIBILITY





USA.gov is the U.S. government's official web portal to all federal, state and local government web resources and services.